QPF
0.00 0.00 0.00 0.00 0.00 0.01 0.00 0.00 0.00 0.01 0.01 0.01 0.00 0.00 0.00 0.00 0.00 0.00 0.00 0.00 0.00 0.00 0.00 0.00 0.00 0.00 0.00 0.00 0.00 0.00 0.00 0.00 0.00 0.00 0.00 0.00 0.00 0.00 0.00 0.00 0.00 0.00 0.00 0.00 0.00
0.01 0.00 0.00 0.00 0.00 0.00 0.01 0.00 0.00 0.00 0.01 0.00 0.00 0.00 0.00 0.00 0.00 0.00 0.00 0.00 0.00 0.00 0.00 0.00 0.00 0.00 0.00 0.00 0.00 0.00 0.00 0.00 0.00 0.00 0.00 0.00 0.00 0.00 0.00 0.00 0.00 0.00 0.00 0.00 0.00
0.00 0.01 0.01 0.00 0.00 0.01 0.00 0.00 0.00 0.00 0.00 0.00 0.00 0.00 0.00 0.00 0.00 0.00 0.00 0.00 0.00 0.00 0.00 0.00 0.00 0.00 0.00 0.00 0.00 0.00 0.00 0.00 0.00 0.00 0.00 0.00 0.00 0.00 0.00 0.00 0.00 0.00 0.00 0.00 0.00
0.01 0.01 0.00 0.01 0.00 0.00 0.01 0.00 0.00 0.00 0.00 0.00 0.00 0.00 0.00 0.00 0.00 0.00 0.00 0.00 0.00 0.00 0.00 0.00 0.00 0.00 0.00 0.00 0.00 0.00 0.00 0.00 0.00 0.00 0.00 0.00 0.00 0.00 0.00 0.00 0.00 0.00 0.00 0.00 0.00
0.00 0.01 0.01 0.01 0.01 0.01 0.01 0.01 0.00 0.00 0.00 0.00 0.00 0.00 0.00 0.00 0.00 0.00 0.00 0.00 0.00 0.00 0.00 0.00 0.00 0.00 0.00 0.00 0.00 0.00 0.00 0.00 0.00 0.00 0.00 0.00 0.00 0.00 0.00 0.00 0.00 0.00 0.00 0.00 0.00
0.01 0.01 0.01 0.01 0.01 0.01 0.01 0.00 0.00 0.00 0.00 0.00 0.00 0.00 0.00 0.00 0.00 0.00 0.00 0.00 0.00 0.00 0.00 0.00 0.00 0.00 0.00 0.00 0.00 0.00 0.00 0.00 0.00 0.00 0.00 0.00 0.00 0.00 0.00 0.00 0.00 0.00 0.00 0.00 0.00
0.00 0.01 0.01 0.01 0.01 0.01 0.01 0.01 0.00 0.00 0.01 0.00 0.00 0.00 0.00 0.00 0.00 0.00 0.00 0.00 0.00 0.00 0.00 0.00 0.00 0.00 0.00 0.00 0.00 0.00 0.00 0.00 0.00 0.00 0.00 0.00 0.00 0.00 0.00 0.00 0.00 0.00 0.00 0.00 0.00
0.01 0.01 0.01 0.01 0.01 0.01 0.01 0.01 0.01 0.01 0.00 0.00 0.00 0.00 0.00 0.00 0.00 0.00 0.00 0.00 0.00 0.00 0.00 0.00 0.00 0.00 0.00 0.00 0.00 0.00 0.00 0.00 0.00 0.00 0.00 0.00 0.00 0.00 0.00 0.00 0.00 0.00 0.00 0.00 0.00
0.01 0.01 0.01 0.01 0.01 0.01 0.01 0.01 0.01 0.01 0.01 0.00 0.00 0.00 0.00 0.00 0.00 0.00 0.00 0.00 0.00 0.00 0.00 0.00 0.00 0.00 0.00 0.00 0.00 0.00 0.00 0.00 0.00 0.00 0.00 0.00 0.00 0.00 0.00 0.00 0.00 0.00 0.00 0.00 0.00
0.01 0.01 0.01 0.01 0.01 0.01 0.00 0.00 0.00 0.00 0.00 0.00 0.00 0.00 0.00 0.00 0.00 0.00 0.00 0.00 0.00 0.00 0.00 0.00 0.00 0.00 0.00 0.00 0.00 0.00 0.00 0.00 0.00 0.00 0.00 0.00 0.00 0.00 0.00 0.00 0.00 0.00 0.00 0.00 0.00
0.00 0.01 0.01 0.01 0.01 0.01 0.00 0.00 0.00 0.00 0.00 0.00 0.00 0.00 0.00 0.00 0.00 0.00 0.00 0.00 0.00 0.00 0.00 0.00 0.00 0.00 0.00 0.00 0.00 0.00 0.00 0.00 0.00 0.00 0.00 0.00 0.00 0.00 0.00 0.02 0.00 0.00 0.00 0.00 0.00
0.00 0.00 0.01 0.01 0.01 0.01 0.00 0.00 0.00 0.00 0.00 0.00 0.00 0.00 0.00 0.00 0.00 0.00 0.00 0.00 0.00 0.00 0.00 0.00 0.00 0.00 0.00 0.00 0.00 0.00 0.00 0.00 0.00 0.00 0.00 0.00 0.00 0.00 0.00 0.01 0.00 0.00 0.00 0.00 0.01
0.00 0.01 0.01 0.01 0.01 0.00 0.00 0.00 0.00 0.00 0.00 0.00 0.00 0.00 0.00 0.00 0.00 0.00 0.00 0.00 0.00 0.00 0.00 0.00 0.00 0.00 0.00 0.00 0.00 0.00 0.00 0.00 0.00 0.00 0.00 0.00 0.00 0.01 0.01 0.02 0.02 0.04 0.04 0.05 0.07
0.00 0.01 0.01 0.01 0.00 0.00 0.00 0.00 0.00 0.00 0.00 0.00 0.00 0.00 0.00 0.00 0.00 0.00 0.00 0.00 0.00 0.00 0.00 0.00 0.00 0.00 0.00 0.00 0.00 0.00 0.00 0.00 0.00 0.00 0.00 0.00 0.00 0.01 0.00 0.00 0.00 0.01 0.02 0.03 0.03
0.00 0.00 0.01 0.01 0.00 0.00 0.00 0.00 0.00 0.00 0.00 0.00 0.00 0.00 0.00 0.00 0.00 0.00 0.00 0.00 0.00 0.00 0.00 0.00 0.00 0.00 0.00 0.00 0.00 0.00 0.00 0.00 0.00 0.00 0.00 0.00 0.00 0.00 0.02 0.01 0.00 0.00 0.00 0.01 0.02
0.00 0.00 0.00 0.00 0.00 0.00 0.00 0.00 0.00 0.00 0.00 0.00 0.00 0.00 0.00 0.00 0.00 0.00 0.00 0.00 0.00 0.00 0.00 0.00 0.00 0.00 0.00 0.00 0.00 0.00 0.00 0.00 0.00 0.00 0.00 0.00 0.00 0.00 0.00 0.00 0.00 0.00 0.00 0.00 0.01
0.00 0.00 0.00 0.00 0.00 0.00 0.00 0.00 0.00 0.00 0.00 0.00 0.00 0.00 0.00 0.00 0.00 0.00 0.00 0.00 0.00 0.00 0.00 0.00 0.00 0.00 0.00 0.00 0.00 0.00 0.00 0.00 0.00 0.00 0.00 0.00 0.00 0.00 0.00 0.00 0.00 0.00 0.00 0.00 0.02
0.00 0.00 0.00 0.00 0.00 0.00 0.00 0.00 0.00 0.00 0.00 0.00 0.00 0.00 0.00 0.00 0.00 0.00 0.00 0.00 0.00 0.00 0.00 0.00 0.00 0.00 0.00 0.00 0.00 0.00 0.00 0.00 0.00 0.00 0.00 0.00 0.00 0.00 0.00 0.00 0.00 0.00 0.00 0.00 0.00
0.00 0.00 0.00 0.00 0.00 0.00 0.00 0.00 0.00 0.00 0.00 0.00 0.00 0.00 0.00 0.00 0.00 0.00 0.00 0.00 0.00 0.00 0.00 0.00 0.00 0.00 0.00 0.00 0.00 0.00 0.00 0.00 0.00 0.00 0.00 0.00 0.00 0.00 0.00 0.00 0.00 0.00 0.00 0.00 0.00
0.00 0.00 0.00 0.00 0.00 0.00 0.00 0.00 0.00 0.00 0.00 0.00 0.00 0.00 0.01 0.00 0.00 0.00 0.00 0.00 0.00 0.00 0.00 0.00 0.00 0.00 0.00 0.00 0.00 0.00 0.00 0.00 0.00 0.00 0.00 0.00 0.00 0.00 0.00 0.00 0.00 0.00 0.00 0.00 0.00
0.00 0.00 0.00 0.00 0.00 0.00 0.00 0.00 0.00 0.00 0.00 0.00 0.00 0.00 0.00 0.02 0.00 0.00 0.00 0.00 0.00 0.00 0.00 0.00 0.00 0.00 0.00 0.00 0.00 0.00 0.00 0.00 0.00 0.00 0.00 0.00 0.00 0.00 0.00 0.00 0.00 0.00 0.00 0.00 0.00
0.00 0.00 0.00 0.00 0.00 0.00 0.00 0.00 0.00 0.00 0.00 0.00 0.00 0.00 0.00 0.00 0.00 0.01 0.00 0.00 0.00 0.00 0.00 0.00 0.00 0.00 0.00 0.00 0.00 0.00 0.00 0.00 0.00 0.00 0.00 0.00 0.00 0.00 0.00 0.00 0.00 0.00 0.00 0.00 0.00
0.00 0.00 0.01 0.00 0.01 0.01 0.01 0.00 0.00 0.00 0.00 0.00 0.00 0.00 0.00 0.00 0.00 0.00 0.00 0.00 0.00 0.00 0.00 0.00 0.00 0.00 0.00 0.00 0.00 0.00 0.00 0.00 0.00 0.00 0.00 0.00 0.00 0.00 0.00 0.00 0.00 0.00 0.00 0.00 0.00
0.00 0.01 0.03 0.03 0.03 0.02 0.01 0.00 0.00 0.00 0.00 0.00 0.00 0.00 0.00 0.00 0.00 0.00 0.00 0.00 0.00 0.00 0.00 0.00 0.00 0.00 0.00 0.00 0.00 0.00 0.00 0.00 0.00 0.00 0.00 0.00 0.00 0.00 0.00 0.00 0.00 0.00 0.00 0.00 0.00
0.00 0.02 0.04 0.03 0.04 0.01 0.00 0.00 0.00 0.00 0.00 0.00 0.00 0.00 0.00 0.00 0.00 0.00 0.00 0.00 0.00 0.00 0.00 0.00 0.00 0.00 0.00 0.00 0.00 0.00 0.00 0.00 0.00 0.00 0.00 0.00 0.00 0.00 0.00 0.00 0.00 0.00 0.00 0.01 0.02
0.00 0.00 0.01 0.01 0.00 0.01 0.00 0.00 0.00 0.00 0.00 0.00 0.00 0.00 0.00 0.01 0.00 0.00 0.00 0.00 0.00 0.00 0.00 0.00 0.00 0.00 0.00 0.00 0.00 0.00 0.00 0.00 0.00 0.00 0.00 0.00 0.00 0.00 0.00 0.00 0.00 0.00 0.00 0.00 0.02
0.00 0.00 0.00 0.00 0.00 0.00 0.00 0.00 0.00 0.00 0.00 0.00 0.00 0.00 0.00 0.00 0.00 0.00 0.00 0.00 0.00 0.00 0.00 0.00 0.00 0.00 0.00 0.00 0.00 0.00 0.00 0.00 0.00 0.00 0.00 0.00 0.00 0.00 0.00 0.00 0.00 0.00 0.00 0.00 0.00
MSLP
1015.06 1014.74 1014.37 1014.12 1013.87 1013.70 1013.52 1013.39 1013.21 1012.97 1012.84 1012.79 1012.62 1012.53 1012.52 1012.49 1012.34 1012.31 1011.18 1008.03 1008.07 1008.02 1008.60 1009.75 1010.59 1010.76 1011.03 1011.61 1011.89 1012.46 1013.41 1013.30 1012.21 1011.23 1009.71 1008.66 1008.24 1007.12 1006.37 1006.47 1006.90 1007.75 1008.35 1009.40 1011.28
1015.03 1014.63 1014.30 1013.94 1013.73 1013.47 1013.28 1013.18 1013.02 1012.83 1012.73 1012.64 1012.46 1012.38 1012.37 1012.30 1012.22 1010.88 1006.74 1006.89 1007.30 1007.67 1008.62 1009.31 1010.48 1010.87 1011.43 1011.62 1011.96 1012.23 1012.81 1011.92 1010.96 1009.85 1009.11 1008.59 1008.28 1007.71 1006.87 1006.87 1007.55 1008.40 1009.18 1010.04 1011.36
1015.05 1014.61 1014.21 1013.88 1013.56 1013.34 1013.06 1012.91 1012.76 1012.67 1012.54 1012.43 1012.29 1012.29 1012.17 1012.08 1011.52 1007.33 1005.34 1006.13 1006.86 1007.55 1007.91 1008.63 1009.79 1010.46 1011.28 1011.53 1011.70 1011.70 1011.35 1010.87 1010.02 1009.24 1008.84 1008.41 1007.88 1007.34 1006.98 1007.35 1007.17 1007.89 1009.61 1010.52 1011.68
1015.03 1014.48 1014.06 1013.73 1013.41 1013.10 1012.88 1012.72 1012.66 1012.50 1012.35 1012.34 1012.19 1012.20 1011.96 1012.04 1009.70 1006.03 1005.01 1005.79 1006.73 1007.31 1007.80 1008.81 1009.98 1010.49 1011.04 1011.28 1010.96 1011.11 1010.41 1010.10 1009.51 1008.75 1008.69 1008.37 1007.90 1007.47 1007.05 1007.19 1006.68 1007.30 1008.44 1010.00 1011.48
1014.84 1014.38 1013.99 1013.62 1013.33 1012.99 1012.73 1012.57 1012.44 1012.33 1012.30 1012.27 1012.13 1012.05 1011.85 1011.20 1008.03 1006.11 1005.82 1006.36 1007.14 1007.40 1007.63 1008.44 1009.55 1010.18 1010.38 1010.42 1010.46 1010.41 1009.75 1009.33 1008.90 1008.76 1008.76 1008.40 1007.99 1007.77 1007.39 1007.25 1007.31 1008.16 1009.48 1010.52 1011.38
1014.72 1014.31 1013.92 1013.53 1013.21 1012.89 1012.58 1012.37 1012.24 1012.12 1012.01 1012.00 1011.98 1011.80 1011.68 1009.87 1005.79 1005.88 1006.10 1006.65 1006.78 1007.45 1007.83 1007.87 1008.67 1008.93 1009.37 1009.52 1009.65 1008.93 1008.88 1008.55 1008.46 1008.27 1008.34 1008.28 1008.02 1007.69 1007.71 1007.54 1008.15 1008.96 1010.30 1011.20 1011.51
1014.63 1014.18 1013.81 1013.39 1012.99 1012.71 1012.37 1012.13 1011.92 1011.79 1011.68 1011.68 1011.80 1011.71 1011.08 1007.09 1005.62 1005.89 1006.24 1006.62 1006.81 1006.97 1007.66 1007.74 1007.83 1008.18 1008.43 1008.95 1008.44 1008.44 1008.61 1008.22 1007.89 1007.57 1007.80 1007.76 1008.06 1007.91 1008.24 1008.22 1008.94 1010.01 1010.67 1011.27 1011.71
1014.59 1014.15 1013.75 1013.28 1012.78 1012.40 1012.12 1011.84 1011.71 1011.52 1011.43 1011.56 1011.67 1011.64 1009.42 1005.61 1005.56 1005.80 1006.15 1006.64 1006.91 1007.05 1007.21 1007.37 1007.49 1007.90 1008.13 1008.04 1008.14 1008.24 1008.21 1007.87 1007.04 1007.15 1007.31 1007.38 1008.46 1008.40 1008.97 1009.11 1009.98 1010.66 1011.30 1011.88 1012.44
1014.54 1014.07 1013.64 1013.13 1012.59 1012.14 1011.81 1011.52 1011.41 1011.33 1011.25 1011.39 1011.66 1011.15 1007.58 1005.06 1005.13 1004.74 1005.22 1005.95 1006.86 1007.30 1007.25 1007.24 1007.39 1008.01 1008.04 1008.24 1008.60 1008.49 1008.18 1007.75 1007.21 1006.94 1007.20 1008.00 1008.93 1009.13 1009.63 1010.25 1010.80 1011.59 1012.20 1012.71 1013.16
1014.34 1013.88 1013.46 1012.94 1012.46 1012.00 1011.57 1010.97 1010.90 1010.98 1011.14 1011.31 1010.99 1010.59 1006.27 1004.29 1003.79 1004.31 1004.96 1005.27 1006.15 1007.12 1007.46 1007.33 1007.84 1008.24 1008.75 1008.79 1008.73 1008.31 1007.97 1007.67 1007.43 1007.30 1007.52 1008.58 1009.36 1009.94 1010.47 1010.96 1011.65 1012.51 1013.06 1013.44 1013.85
1014.06 1013.60 1013.15 1012.73 1012.27 1011.97 1011.76 1011.43 1011.38 1010.83 1010.10 1008.11 1007.26 1006.33 1004.51 1003.36 1003.16 1003.92 1004.35 1004.91 1005.48 1006.46 1007.14 1007.44 1008.06 1008.31 1008.28 1008.19 1007.79 1007.74 1007.73 1007.84 1007.37 1007.14 1007.78 1008.86 1009.98 1010.94 1011.53 1012.15 1012.65 1013.22 1013.67 1014.13 1014.50
1013.76 1013.24 1012.73 1012.29 1011.93 1011.78 1011.92 1010.93 1007.62 1006.37 1006.78 1005.83 1005.69 1005.21 1004.04 1003.47 1003.52 1003.70 1003.79 1004.74 1005.43 1006.23 1006.80 1007.65 1007.60 1007.17 1007.26 1007.66 1007.63 1007.59 1007.59 1007.40 1007.05 1007.23 1008.15 1009.72 1011.41 1011.80 1012.18 1012.92 1013.29 1013.96 1014.43 1014.79 1015.12
1013.41 1012.86 1012.27 1011.71 1011.27 1011.41 1010.98 1008.71 1006.49 1006.32 1006.10 1004.50 1004.12 1003.72 1002.92 1003.20 1003.16 1003.06 1003.24 1003.98 1004.82 1005.86 1006.40 1006.87 1006.40 1006.12 1006.74 1007.32 1007.39 1007.27 1007.37 1007.20 1007.65 1008.16 1009.17 1009.99 1012.20 1012.72 1012.71 1012.93 1013.55 1014.08 1014.66 1015.09 1015.57
1012.96 1012.44 1011.88 1011.13 1011.03 1011.05 1009.75 1006.76 1006.38 1006.95 1006.24 1003.89 1002.91 1001.63 1001.97 1002.09 1002.30 1001.99 1002.51 1003.29 1004.29 1005.05 1005.86 1006.02 1005.11 1005.56 1006.17 1006.51 1006.55 1006.84 1006.62 1007.01 1007.81 1008.54 1010.04 1010.35 1012.37 1013.04 1013.08 1013.29 1013.61 1014.22 1014.79 1015.27 1015.78
1012.34 1011.80 1011.49 1011.43 1011.12 1010.46 1007.29 1006.51 1006.17 1006.73 1005.46 1002.49 1001.34 1000.49 1000.70 1001.15 1001.11 1001.75 1001.75 1002.66 1003.71 1004.49 1005.29 1004.92 1004.56 1004.74 1005.17 1005.17 1005.78 1006.50 1006.70 1007.63 1008.13 1009.12 1010.13 1010.82 1011.78 1012.94 1013.24 1013.52 1013.57 1013.97 1014.62 1015.34 1015.80
1011.39 1010.89 1010.64 1010.17 1010.11 1007.47 1007.05 1006.82 1006.23 1006.53 1004.49 1001.80 1000.55 1000.45 1001.02 1000.79 1000.91 1001.45 1001.89 1002.13 1003.16 1004.08 1004.40 1004.30 1003.80 1003.67 1003.79 1004.48 1005.18 1006.61 1007.72 1008.56 1009.38 1010.32 1011.36 1011.42 1011.85 1012.82 1012.93 1011.91 1012.32 1013.37 1014.33 1015.30 1015.91
1010.39 1009.31 1009.62 1009.24 1007.70 1006.37 1007.05 1007.18 1006.82 1005.43 1003.24 1001.97 1001.06 1000.70 1000.74 1000.90 1001.11 1001.11 1002.22 1002.86 1003.61 1004.44 1004.44 1003.92 1003.58 1003.21 1003.43 1004.67 1005.88 1006.93 1008.27 1010.26 1011.31 1011.94 1012.50 1012.14 1012.26 1011.58 1011.16 1011.32 1011.72 1012.39 1013.78 1014.91 1015.86
1009.36 1007.66 1006.59 1006.30 1005.90 1006.43 1006.76 1006.54 1005.68 1003.98 1002.87 1001.68 1001.42 1001.11 1001.15 1001.16 1001.22 1001.39 1002.14 1003.19 1003.77 1004.00 1004.82 1004.58 1004.15 1003.49 1003.56 1004.53 1005.97 1007.38 1008.24 1010.35 1012.14 1013.38 1013.12 1012.49 1012.34 1011.35 1011.11 1011.38 1011.58 1011.77 1013.13 1014.64 1015.60
1008.26 1006.71 1006.32 1005.03 1005.72 1006.29 1006.48 1005.56 1004.07 1003.20 1002.27 1001.84 1001.78 1001.74 1001.78 1001.48 1001.47 1001.87 1002.47 1002.94 1003.28 1003.72 1004.41 1004.67 1004.30 1003.74 1003.85 1004.33 1005.42 1007.56 1008.79 1010.00 1012.08 1013.91 1013.89 1013.26 1012.53 1011.22 1011.30 1011.53 1011.72 1012.20 1013.05 1013.92 1014.88
1008.54 1007.31 1005.60 1004.70 1005.20 1005.75 1005.49 1004.32 1003.23 1002.41 1001.88 1001.87 1002.14 1002.43 1002.45 1002.36 1002.29 1002.29 1002.73 1002.96 1003.14 1003.39 1003.51 1004.48 1004.88 1004.48 1004.65 1004.44 1006.02 1006.59 1008.93 1010.51 1012.21 1014.06 1014.71 1013.98 1013.37 1012.26 1011.98 1011.94 1012.37 1012.74 1012.93 1013.75 1014.78
1008.59 1007.07 1004.91 1004.69 1005.15 1005.10 1004.77 1003.70 1002.67 1001.84 1001.74 1001.96 1002.37 1002.77 1002.95 1002.88 1002.68 1002.70 1002.95 1003.18 1003.02 1003.46 1003.77 1004.72 1005.25 1005.75 1005.31 1005.84 1006.70 1008.29 1009.40 1010.99 1012.33 1013.64 1014.63 1014.67 1013.60 1012.05 1011.98 1012.01 1012.22 1012.46 1012.80 1013.29 1014.09
1008.82 1007.03 1005.08 1004.88 1005.28 1005.28 1004.36 1003.07 1001.94 1001.52 1001.61 1001.99 1002.38 1002.75 1003.12 1003.37 1003.12 1002.79 1002.79 1002.95 1002.85 1003.25 1004.29 1005.00 1005.74 1006.51 1006.49 1006.87 1006.81 1007.64 1008.87 1010.16 1012.40 1014.36 1014.76 1014.56 1013.62 1012.81 1012.77 1012.41 1012.55 1012.41 1012.51 1013.02 1013.48
1009.18 1007.72 1004.76 1004.65 1005.46 1005.46 1004.26 1002.97 1002.07 1001.86 1001.80 1002.11 1002.50 1002.62 1002.98 1003.34 1003.48 1003.04 1002.83 1002.48 1002.43 1002.81 1003.82 1005.11 1006.35 1007.20 1007.48 1007.57 1007.22 1008.02 1009.25 1010.61 1011.72 1013.13 1014.38 1014.66 1013.53 1013.06 1013.40 1013.41 1013.37 1013.32 1013.32 1013.39 1013.62
1009.36 1008.28 1006.31 1005.59 1006.17 1005.66 1005.15 1003.83 1002.59 1002.01 1002.08 1002.17 1002.53 1002.64 1003.16 1003.53 1003.52 1003.53 1003.31 1003.30 1003.35 1004.03 1004.75 1005.26 1006.66 1006.78 1007.11 1007.39 1007.85 1008.88 1009.76 1010.82 1011.81 1013.68 1014.21 1014.21 1013.71 1013.63 1014.57 1014.88 1014.44 1014.05 1013.61 1013.67 1013.96
1009.78 1009.90 1009.18 1008.00 1006.93 1006.61 1005.59 1004.54 1003.36 1002.65 1002.50 1002.57 1002.91 1002.99 1003.39 1003.94 1004.10 1004.03 1003.85 1003.79 1003.56 1004.53 1005.24 1005.90 1007.62 1007.91 1007.62 1007.65 1007.94 1009.05 1010.25 1011.29 1012.08 1012.83 1013.71 1013.85 1014.56 1015.33 1015.74 1015.97 1015.78 1015.21 1014.36 1013.98 1014.02
1011.30 1011.01 1009.89 1008.73 1007.58 1006.20 1006.19 1005.38 1004.41 1003.76 1003.45 1003.56 1003.46 1003.71 1003.97 1004.31 1004.28 1004.33 1004.29 1004.22 1004.54 1005.05 1006.34 1006.23 1008.09 1008.48 1009.03 1009.02 1008.93 1010.31 1011.30 1011.95 1012.71 1013.33 1013.77 1014.18 1015.13 1015.83 1015.98 1016.30 1016.29 1016.18 1015.66 1015.22 1014.99
1012.16 1011.67 1011.01 1009.56 1009.09 1008.81 1008.20 1006.54 1005.44 1004.69 1004.54 1004.50 1004.33 1004.31 1004.71 1004.86 1004.60 1004.78 1004.98 1005.26 1005.76 1006.34 1007.61 1007.94 1008.57 1009.73 1010.27 1010.23 1010.83 1012.35 1013.09 1013.26 1014.00 1014.31 1014.61 1015.08 1015.67 1016.29 1016.37 1016.52 1016.59 1016.58 1016.54 1016.35 1016.00
Thickness
5687 5689 5692 5693 5695 5696 5697 5697 5698 5700 5701 5702 5704 5707 5710 5715 5721 5725 5735 5761 5767 5774 5773 5764 5760 5759 5760 5754 5756 5750 5724 5723 5741 5746 5761 5777 5772 5799 5817 5810 5815 5815 5811 5808 5796
5682 5684 5686 5688 5690 5692 5693 5693 5694 5695 5696 5696 5698 5700 5703 5708 5713 5725 5764 5766 5766 5768 5761 5755 5743 5748 5741 5744 5746 5738 5720 5736 5753 5765 5766 5768 5772 5782 5796 5800 5800 5800 5805 5800 5793
5678 5679 5681 5683 5685 5686 5688 5690 5691 5691 5691 5692 5693 5693 5697 5702 5711 5744 5770 5766 5762 5760 5758 5755 5746 5744 5737 5737 5740 5738 5734 5747 5759 5766 5768 5765 5772 5788 5789 5786 5800 5797 5794 5793 5786
5674 5676 5678 5679 5680 5682 5683 5685 5686 5686 5687 5687 5688 5688 5691 5694 5705 5751 5766 5763 5757 5755 5750 5742 5734 5728 5724 5724 5739 5736 5747 5751 5759 5768 5764 5763 5773 5777 5790 5791 5810 5807 5804 5796 5785
5672 5673 5674 5676 5676 5678 5679 5680 5682 5682 5682 5682 5684 5684 5686 5694 5711 5744 5753 5752 5748 5748 5743 5736 5727 5721 5720 5728 5733 5736 5747 5751 5755 5755 5757 5763 5763 5770 5779 5794 5802 5798 5792 5786 5785
5668 5669 5670 5672 5672 5674 5675 5676 5677 5678 5678 5679 5680 5682 5683 5687 5734 5742 5744 5744 5745 5740 5736 5739 5728 5729 5725 5730 5731 5745 5742 5750 5752 5753 5757 5756 5761 5773 5775 5790 5787 5786 5780 5779 5782
5663 5665 5665 5667 5669 5670 5671 5672 5673 5674 5675 5676 5676 5677 5680 5701 5733 5737 5739 5737 5739 5739 5729 5734 5736 5732 5731 5725 5739 5744 5738 5744 5748 5757 5757 5759 5752 5760 5768 5781 5777 5773 5776 5777 5778
5658 5659 5660 5662 5665 5667 5668 5669 5669 5671 5672 5671 5672 5672 5681 5725 5728 5729 5731 5729 5732 5734 5733 5736 5738 5732 5731 5739 5733 5733 5734 5727 5754 5751 5760 5758 5730 5758 5763 5767 5763 5767 5768 5767 5765
5653 5654 5655 5657 5660 5663 5665 5666 5667 5667 5668 5667 5666 5670 5688 5724 5720 5731 5732 5725 5722 5723 5729 5735 5733 5722 5727 5714 5705 5712 5713 5721 5735 5749 5752 5747 5731 5752 5759 5756 5753 5754 5755 5756 5755
5649 5650 5651 5653 5655 5659 5661 5666 5666 5665 5664 5663 5666 5668 5702 5714 5728 5726 5728 5729 5720 5714 5714 5718 5708 5701 5695 5696 5684 5706 5710 5718 5720 5741 5743 5729 5731 5738 5748 5749 5744 5743 5743 5742 5743
5644 5646 5648 5649 5651 5653 5655 5658 5661 5663 5666 5684 5692 5698 5713 5727 5734 5722 5726 5723 5720 5712 5698 5706 5692 5685 5697 5704 5713 5714 5710 5707 5717 5735 5737 5727 5723 5725 5731 5730 5732 5731 5731 5732 5731
5639 5642 5644 5646 5647 5648 5648 5654 5685 5694 5681 5692 5695 5697 5711 5720 5709 5715 5726 5709 5706 5693 5700 5691 5684 5703 5708 5703 5707 5708 5706 5706 5725 5732 5726 5714 5703 5713 5721 5721 5726 5721 5719 5721 5720
5635 5638 5641 5644 5646 5645 5649 5667 5689 5689 5675 5694 5698 5701 5710 5712 5704 5711 5720 5712 5703 5691 5693 5683 5701 5712 5709 5698 5699 5705 5704 5712 5716 5718 5718 5713 5693 5699 5714 5720 5718 5716 5716 5715 5711
5630 5633 5637 5642 5643 5641 5651 5680 5683 5678 5656 5683 5694 5709 5713 5713 5704 5725 5725 5715 5704 5691 5688 5691 5712 5709 5700 5700 5706 5703 5717 5723 5716 5706 5682 5708 5665 5689 5700 5704 5710 5710 5710 5709 5707
5625 5629 5631 5632 5634 5637 5673 5676 5679 5671 5629 5697 5702 5725 5717 5710 5717 5713 5729 5715 5695 5695 5695 5693 5709 5705 5700 5710 5716 5708 5721 5716 5712 5697 5693 5698 5681 5686 5690 5693 5701 5706 5705 5701 5702
5621 5626 5630 5633 5634 5658 5664 5666 5671 5644 5629 5686 5708 5701 5699 5708 5711 5713 5714 5723 5714 5700 5704 5701 5721 5723 5721 5718 5725 5709 5702 5695 5684 5681 5668 5691 5682 5672 5677 5705 5713 5707 5702 5697 5696
5616 5626 5628 5630 5643 5659 5655 5657 5637 5627 5676 5679 5688 5698 5698 5696 5699 5706 5695 5688 5678 5669 5677 5699 5709 5726 5725 5706 5709 5699 5684 5650 5657 5646 5655 5668 5671 5684 5701 5706 5711 5711 5702 5696 5691
5610 5626 5639 5645 5649 5649 5649 5648 5631 5654 5661 5688 5686 5690 5684 5692 5698 5700 5690 5681 5691 5687 5668 5673 5674 5710 5725 5709 5695 5694 5689 5654 5652 5635 5653 5668 5667 5689 5703 5705 5709 5713 5703 5692 5687
5604 5619 5626 5643 5640 5640 5643 5630 5642 5652 5674 5676 5679 5675 5678 5689 5695 5691 5685 5685 5694 5693 5676 5673 5682 5714 5718 5717 5712 5689 5672 5679 5643 5635 5641 5647 5670 5691 5694 5694 5695 5693 5692 5689 5684
5588 5599 5620 5634 5635 5636 5635 5637 5656 5668 5675 5674 5662 5666 5663 5671 5677 5681 5684 5691 5693 5699 5705 5689 5673 5700 5705 5715 5700 5701 5682 5667 5646 5636 5637 5639 5652 5660 5680 5685 5682 5682 5687 5683 5678
5572 5596 5619 5623 5626 5630 5625 5638 5654 5669 5675 5666 5660 5657 5664 5666 5676 5676 5680 5687 5699 5695 5700 5684 5677 5679 5695 5686 5677 5673 5665 5651 5646 5635 5628 5626 5637 5666 5678 5679 5677 5679 5681 5679 5673
5562 5593 5608 5615 5616 5612 5624 5642 5661 5663 5668 5666 5664 5663 5658 5661 5667 5673 5677 5683 5698 5693 5679 5680 5662 5656 5675 5678 5686 5682 5671 5660 5636 5637 5619 5618 5628 5662 5666 5672 5672 5674 5676 5673 5671
5554 5568 5605 5613 5603 5606 5623 5642 5655 5654 5658 5657 5658 5667 5667 5662 5659 5671 5678 5697 5697 5692 5680 5675 5652 5638 5653 5661 5679 5670 5666 5648 5638 5628 5617 5619 5631 5653 5651 5654 5659 5660 5661 5662 5661
5551 5574 5588 5599 5599 5610 5610 5625 5641 5654 5652 5658 5658 5665 5659 5658 5663 5661 5667 5677 5684 5677 5673 5671 5643 5653 5647 5655 5661 5654 5658 5648 5639 5616 5616 5616 5640 5642 5631 5630 5637 5641 5651 5650 5646
5547 5557 5565 5578 5595 5599 5608 5618 5629 5639 5649 5651 5653 5657 5653 5645 5651 5650 5661 5667 5677 5670 5665 5661 5638 5644 5651 5657 5662 5655 5647 5640 5642 5633 5625 5632 5624 5613 5611 5611 5616 5623 5632 5638 5637
5537 5548 5559 5577 5590 5607 5603 5613 5623 5635 5642 5641 5643 5649 5646 5644 5648 5650 5656 5661 5660 5662 5652 5651 5630 5637 5634 5641 5646 5633 5629 5633 5625 5615 5622 5618 5611 5600 5603 5600 5603 5603 5609 5614 5617
5535 5544 5555 5575 5580 5582 5587 5607 5619 5632 5633 5635 5642 5641 5636 5643 5651 5652 5648 5645 5647 5652 5638 5638 5628 5622 5618 5629 5625 5608 5602 5608 5596 5599 5600 5601 5597 5585 5588 5590 5587 5590 5589 5591 5595